This is the latest recevied weather packets stored in our database for station/object K0SDS. If no packets are shown the sender has not sent any weather packets the latest 10 day(s).
| Time | Temp. | Humidity | Pressure | Rain* | Wind** | Luminosity | Snow |
|---|---|---|---|---|---|---|---|
| 1777713447 | 3.33° C | 82% | 1020.1 hPa | 0 mm | - | 0 W/m² | - |
| 1777713144 | 2.78° C | 80% | 1020 hPa | 0 mm | - | 0 W/m² | - |
| 1777712841 | 3.33° C | 79% | 1020 hPa | 0 mm | - | 0 W/m² | - |
| 1777712538 | 3.33° C | 77% | 1019.9 hPa | 0 mm | - | 0 W/m² | - |
| 1777712235 | 3.89° C | 77% | 1020 hPa | 0 mm | - | 0 W/m² | - |
| 1777711931 | 3.89° C | 77% | 1019.9 hPa | 0 mm | - | 0 W/m² | - |
| 1777711629 | 3.89° C | 75% | 1020.1 hPa | 0 mm | - | 0 W/m² | - |
| 1777711323 | 3.89° C | 75% | 1020 hPa | 0 mm | - | 0 W/m² | - |
| 1777711020 | 4.44° C | 74% | 1020.1 hPa | 0 mm | - | 0 W/m² | - |
| 1777710717 | 4.44° C | 73% | 1019.6 hPa | 0 mm | - | 0 W/m² | - |
| 1777710414 | 4.44° C | 72% | 1019.5 hPa | 0 mm | - | 0 W/m² | - |
| 1777710111 | 4.44° C | 71% | 1019.6 hPa | 0 mm | - | 0 W/m² | - |
| 1777709808 | 5° C | 70% | 1019.8 hPa | 0 mm | - | 0 W/m² | - |
| 1777709505 | 5° C | 70% | 1019.7 hPa | 0 mm | - | 0 W/m² | - |
| 1777709203 | 5.56° C | 68% | 1019.9 hPa | 0 mm | - | 0 W/m² | - |
| 1777708900 | 5.56° C | 68% | 1019.8 hPa | 0 mm | - | 0 W/m² | - |
| 1777708598 | 5.56° C | 67% | 1019.8 hPa | 0 mm | - | 0 W/m² | - |
| 1777708296 | 5.56° C | 65% | 1019.8 hPa | 0 mm | - | 0 W/m² | - |
| 1777707993 | 6.11° C | 64% | 1019.6 hPa | 0 mm | - | 0 W/m² | - |
| 1777707690 | 6.11° C | 65% | 1019.7 hPa | 0 mm | - | 0 W/m² | - |
| 1777707386 | 6.11° C | 65% | 1019.7 hPa | 0 mm | - | 0 W/m² | - |
| 1777707083 | 5.56° C | 67% | 1019.6 hPa | 0 mm | - | 0 W/m² | - |
| 1777706781 | 6.11° C | 65% | 1019.8 hPa | 0 mm | - | 0 W/m² | - |
| 1777706478 | 6.11° C | 64% | 1019.6 hPa | 0 mm | - | 0 W/m² | - |
| 1777706175 | 6.11° C | 64% | 1019.6 hPa | 0 mm | - | 0 W/m² | - |
* Rain latest hour (hover to see other rain measurements)
** Current wind speed in m/s (hover to see current wind gust speed)